Temp_Advection
nan nan nan nan nan nan nan nan nan nan nan nan nan nan nan nan nan nan nan nan nan nan nan nan nan nan nan nan nan nan nan nan nan
nan 0 0 -0 -0 -0 -0 -0 -0 -0 -0 0 0 0 0 0 0 0 0 0 0 0 0 -0 -1 -1 0 0 0 1 1 -0 nan
nan -0 0 0 -0 -0 -0 -0 -0 -0 0 -0 0 -0 -0 -0 -0 -0 0 0 0 1 0 -0 -1 -0 1 0 -0 -0 -1 -0 nan
nan -0 0 0 0 0 0 -0 0 -0 -0 -0 -0 -0 -0 -0 -0 -0 -0 -0 0 1 1 -0 -1 -0 0 1 1 -0 -0 -1 nan
nan 0 0 0 -0 -0 -0 -0 -0 -0 -0 -0 -0 -0 -0 -0 -0 -0 -0 -0 -0 0 1 -0 -1 -1 -0 0 1 1 0 -0 nan
nan -0 -0 -0 -0 -0 -0 -0 -0 -0 -0 -0 -0 -0 -0 -0 -0 -0 -0 -0 -0 -0 0 0 0 -0 -1 -1 -0 1 1 1 nan
nan -0 -0 -0 -0 -0 -0 -0 -0 -0 -0 -0 0 -0 -0 -0 -0 0 -0 -0 0 0 0 -0 -0 -0 -0 -0 -0 0 1 0 nan
nan -0 -0 -0 -0 -0 -0 -0 -0 -0 -0 -0 -0 0 -0 -0 -0 0 0 -0 0 0 0 0 0 0 0 0 0 -0 0 0 nan
nan -0 -0 0 -0 -0 -0 0 -0 -0 -0 -0 -0 -0 -0 -0 -0 -0 0 0 -0 0 0 -0 -0 0 -0 0 0 0 0 0 nan
nan -0 -0 -0 0 0 -0 -0 -0 0 -0 -0 0 0 0 -0 -0 -0 -0 -0 -0 -0 -0 -0 -0 -0 -0 -0 -0 -0 0 0 nan
nan 0 -0 -0 -0 -0 0 0 -0 -0 -0 -0 -0 -0 -0 0 0 -0 -0 -0 -0 -0 -0 -0 -0 0 -0 -0 -0 -0 -1 -0 nan
nan 0 -0 0 -0 -0 -0 -0 -0 -0 -0 -0 -0 -0 -0 -0 -0 -0 -0 -0 -0 -0 -0 0 -0 -0 0 -0 -0 -0 -0 -1 nan
nan -0 -0 -0 -0 -0 -0 -0 -0 -0 -0 -0 -0 -0 -0 -0 -0 0 -0 -0 -0 -0 -0 -0 -0 -0 0 0 -0 -0 0 -0 nan
nan -0 0 -0 -0 -0 -0 -0 -0 -1 -1 -1 -1 -0 -0 -0 -0 -0 -0 -0 -0 -0 -0 -0 -0 -0 -0 -0 -0 -0 -0 -0 nan
nan -0 -0 -0 -0 -0 -0 -0 -0 -0 -1 -1 -1 -0 -0 -0 -0 -0 -0 -0 -0 -0 -0 -1 -1 -1 -1 -1 -1 -0 0 0 nan
nan -0 -0 -0 -0 -0 -1 -1 -1 -0 -1 -1 -2 -2 -1 -0 -1 -1 -1 -1 -0 -0 -0 -1 -1 -2 -2 -1 -1 -1 -1 -1 nan
nan -0 -0 -0 -0 -0 -0 -0 -1 -1 -1 -1 -2 -2 -2 -1 -2 -1 -2 -1 -1 -1 -1 -1 -1 -1 -2 -1 -1 -1 -1 -1 nan
nan -0 -0 -0 -0 -0 -0 -0 -0 -1 -0 0 -0 -0 -1 -4 -1 -2 -0 -1 -1 -2 -2 -1 -1 -1 -1 -1 -1 -1 -1 -1 nan
nan -0 -0 -0 -0 -0 -0 -0 -0 -0 -1 -0 0 0 0 -0 -2 -1 -3 -1 -2 -1 -1 -1 -1 -1 -1 -1 -1 -1 -1 -1 nan
nan nan nan nan nan nan nan nan nan nan nan nan nan nan nan nan nan nan nan nan nan nan nan nan nan nan nan nan nan nan nan nan nan
Wind_Speed
2 2 7 10 11 9 10 7 5 5 5 5 5 6 8 11 11 10 9 10 8 13 15 18 13 14 15 19 18 17 17 16 15
5 4 8 11 9 8 9 8 8 7 7 7 7 8 9 10 11 12 11 10 12 10 14 15 17 14 15 18 21 22 20 17 17
2 4 7 8 7 8 9 9 9 8 9 9 10 11 11 12 13 13 12 10 10 11 14 16 17 17 17 19 19 20 21 21 20
3 4 5 5 7 8 9 9 9 10 10 11 12 11 11 14 15 13 11 9 9 12 15 18 17 18 19 19 20 21 21 23 23
0 1 3 5 8 9 10 10 11 11 12 12 11 12 13 16 15 14 14 15 15 17 15 19 20 20 20 21 22 23 24 23 25
2 4 6 9 9 9 11 10 12 13 14 15 16 17 18 19 19 20 21 21 21 21 22 23 24 26 26 25 25 24 25 26 28
5 7 6 7 10 10 12 14 14 15 16 16 17 18 20 22 22 22 22 21 22 24 25 27 27 27 27 28 27 27 27 27 28
4 4 7 10 12 14 14 13 14 15 15 17 17 16 17 18 19 22 22 22 23 24 26 27 29 30 29 26 26 29 30 30 30
3 4 6 8 9 10 13 14 15 16 15 13 14 14 15 15 17 19 18 18 20 21 24 26 27 28 28 28 26 26 30 33 34
5 6 4 7 9 12 13 14 13 11 13 12 13 14 14 16 18 21 22 22 22 22 24 24 22 25 26 27 26 27 29 30 33
6 3 6 9 10 12 13 12 13 12 11 12 14 15 16 17 18 21 20 21 18 18 20 20 20 21 23 24 24 27 30 30 30
5 5 7 9 10 11 7 8 11 12 13 15 17 17 18 20 20 19 20 18 16 16 16 18 17 20 23 24 25 27 32 32 32
5 4 7 5 5 7 10 13 15 17 20 20 19 19 17 15 14 11 13 14 17 20 23 24 25 26 28 27 25 25 25 24 28
4 2 2 5 9 12 14 16 18 19 19 20 19 18 13 9 13 15 17 20 23 24 25 24 25 25 26 28 29 30 32 34 35
2 4 7 10 13 15 17 17 16 18 19 20 21 19 12 19 13 12 24 20 20 18 15 20 26 30 32 33 35 37 38 37 34
5 9 12 15 17 17 17 17 17 17 22 26 28 24 19 9 16 26 23 22 13 17 23 31 32 31 29 30 33 32 33 36 33
9 13 16 18 17 16 16 16 18 19 21 24 24 16 24 10 34 14 26 13 18 29 32 32 30 33 29 27 31 37 31 26 28
12 16 19 19 18 16 15 16 19 21 21 21 15 10 9 41 14 35 10 30 24 36 35 34 33 27 29 35 36 33 30 30 29
14 18 20 20 19 16 16 16 18 20 23 23 22 18 23 24 23 18 44 25 41 39 38 37 30 32 33 38 29 31 28 31 32
15 19 21 21 18 17 17 17 18 20 21 22 26 28 31 29 29 34 27 39 38 42 37 40 39 33 37 30 41 34 36 35 38
Wind_Direction
233 238 309 10 6 13 25 24 3 344 330 324 323 312 304 309 310 308 288 278 259 240 269 283 280 262 253 245 246 250 263 266 270
212 270 305 339 7 21 21 23 12 359 350 351 340 339 333 329 327 319 306 277 275 271 259 265 283 282 272 262 258 257 259 264 265
254 258 307 332 349 3 360 1 357 350 344 342 340 341 338 336 333 327 322 306 280 277 273 279 284 283 278 274 273 269 268 266 264
226 264 305 332 341 343 344 347 346 344 341 338 337 336 335 337 333 330 329 330 321 304 280 281 294 292 286 278 274 272 269 273 271
199 335 346 331 328 334 339 339 343 346 345 343 342 333 330 336 336 334 333 328 325 314 291 288 299 303 301 291 279 270 273 266 269
52 19 350 344 341 348 347 349 351 353 356 354 351 343 343 339 334 331 332 330 324 318 306 305 305 307 303 297 290 283 274 267 267
348 343 347 349 349 354 355 352 357 355 349 345 340 335 334 332 331 328 329 326 321 314 312 312 311 310 309 306 296 287 280 276 267
314 333 344 348 353 351 349 345 341 332 328 326 327 329 321 320 324 324 321 317 311 302 301 299 302 305 307 303 292 285 285 282 276
319 329 329 340 323 325 320 317 320 316 321 331 332 321 312 309 310 308 305 301 302 301 296 295 299 295 294 296 295 293 285 281 284
241 273 280 297 299 299 296 299 299 299 298 296 300 306 309 299 294 293 294 296 298 302 297 299 306 304 299 293 292 299 297 289 282
259 253 272 280 287 288 289 291 295 304 309 306 302 301 301 304 305 307 299 300 302 305 306 297 291 293 299 300 297 300 301 296 294
211 238 264 274 273 283 301 306 310 308 305 304 304 301 299 299 299 294 297 301 303 302 303 295 303 303 303 305 298 296 295 293 291
189 233 258 275 304 314 315 316 317 315 315 316 314 317 320 313 305 308 315 315 305 300 306 303 303 300 297 297 297 302 297 299 299
233 202 352 331 326 324 322 323 324 324 324 327 330 335 337 327 318 306 307 307 301 301 301 302 303 303 303 301 298 295 294 296 293
66 9 345 335 332 327 325 328 332 336 333 333 334 339 335 331 322 321 314 314 307 308 310 304 303 297 295 290 289 290 292 295 302
17 357 348 341 337 336 334 336 339 344 341 340 340 342 334 321 327 323 331 327 318 307 301 304 309 311 307 301 301 301 304 298 303
9 1 354 350 347 341 340 343 346 350 354 351 349 342 342 314 331 322 328 312 306 306 315 318 320 319 315 310 306 305 305 313 311
6 3 358 353 347 343 343 345 346 346 345 349 356 342 320 325 325 323 320 313 314 317 321 323 319 318 308 303 310 308 299 304 304
359 357 354 349 344 339 340 342 341 338 338 337 335 326 318 319 316 308 318 324 315 322 319 318 320 306 314 308 308 308 309 302 301
356 352 347 342 338 334 332 333 335 336 334 332 328 325 323 322 313 309 308 312 314 317 315 314 314 312 312 308 306 301 299 300 300
Height
1515 1515 1514 1514 1513 1513 1512 1511 1511 1511 1510 1509 1509 1508 1508 1506 1506 1506 1506 1505 1505 1506 1506 1505 1505 1506 1506 1506 1506 1506 1506 1505 1505
1514 1515 1514 1514 1513 1512 1512 1511 1510 1509 1509 1508 1508 1507 1507 1506 1505 1505 1504 1503 1503 1504 1505 1505 1503 1503 1503 1503 1503 1503 1503 1503 1502
1514 1514 1514 1513 1513 1512 1512 1511 1510 1510 1509 1508 1507 1506 1506 1505 1504 1504 1502 1502 1501 1501 1502 1502 1501 1500 1500 1500 1500 1500 1499 1499 1499
1513 1513 1513 1513 1513 1512 1512 1511 1510 1509 1508 1508 1507 1506 1505 1504 1503 1502 1501 1501 1499 1499 1500 1500 1498 1497 1497 1496 1497 1496 1497 1496 1495
1512 1512 1513 1513 1513 1512 1511 1510 1510 1509 1508 1507 1506 1505 1504 1503 1502 1501 1501 1499 1498 1497 1497 1497 1495 1494 1493 1493 1492 1492 1492 1492 1492
1511 1512 1512 1512 1512 1511 1511 1510 1509 1508 1507 1506 1505 1504 1502 1501 1500 1499 1498 1496 1495 1494 1495 1494 1493 1492 1490 1489 1488 1487 1487 1488 1487
1511 1511 1511 1511 1511 1510 1510 1509 1507 1506 1505 1504 1503 1502 1501 1499 1498 1497 1496 1494 1493 1492 1490 1489 1488 1487 1486 1484 1482 1482 1481 1481 1481
1511 1511 1511 1511 1510 1508 1508 1507 1505 1504 1503 1502 1500 1498 1498 1496 1495 1494 1492 1491 1490 1488 1487 1485 1483 1481 1480 1478 1477 1476 1475 1475 1474
1510 1510 1509 1508 1507 1506 1506 1505 1504 1502 1500 1499 1498 1496 1495 1493 1492 1491 1489 1488 1486 1484 1482 1480 1478 1476 1474 1473 1472 1471 1469 1468 1468
1509 1509 1508 1507 1506 1504 1503 1501 1500 1498 1496 1496 1494 1492 1490 1489 1488 1486 1485 1483 1480 1478 1477 1475 1474 1472 1469 1468 1466 1465 1464 1462 1461
1508 1507 1506 1505 1503 1502 1500 1498 1497 1495 1493 1492 1491 1488 1486 1485 1483 1481 1478 1475 1474 1473 1471 1469 1467 1465 1464 1462 1460 1459 1457 1456 1454
1504 1504 1504 1502 1501 1499 1498 1497 1495 1492 1490 1488 1486 1484 1482 1480 1477 1474 1472 1470 1469 1468 1466 1464 1462 1461 1459 1457 1455 1453 1451 1448 1446
1502 1502 1502 1500 1499 1498 1496 1494 1491 1488 1485 1482 1481 1478 1477 1473 1470 1469 1468 1466 1465 1463 1461 1459 1457 1456 1454 1452 1449 1447 1444 1441 1439
1501 1501 1501 1499 1497 1495 1493 1490 1487 1483 1480 1477 1475 1473 1472 1469 1467 1466 1464 1463 1460 1458 1456 1453 1451 1449 1446 1444 1441 1439 1436 1433 1431
1501 1500 1499 1497 1495 1492 1490 1487 1484 1480 1476 1474 1471 1469 1467 1465 1463 1462 1461 1458 1454 1452 1449 1447 1445 1443 1440 1437 1434 1431 1428 1425 1422
1499 1498 1497 1494 1491 1488 1485 1483 1480 1477 1473 1468 1464 1462 1462 1459 1459 1456 1454 1451 1449 1448 1445 1442 1438 1435 1431 1428 1426 1422 1419 1415 1413
1498 1496 1494 1492 1489 1486 1483 1480 1477 1475 1471 1467 1462 1457 1455 1455 1453 1450 1449 1447 1445 1442 1439 1435 1431 1428 1424 1421 1418 1415 1412 1409 1405
1495 1494 1491 1488 1486 1483 1480 1478 1475 1472 1471 1469 1467 1463 1459 1450 1448 1446 1444 1442 1438 1435 1431 1427 1425 1421 1418 1414 1410 1407 1403 1401 1398
1493 1491 1488 1485 1483 1481 1478 1476 1473 1471 1469 1467 1466 1466 1462 1455 1441 1440 1436 1435 1431 1427 1423 1420 1418 1415 1410 1406 1402 1399 1395 1392 1390
1490 1488 1485 1482 1480 1478 1476 1474 1472 1469 1467 1465 1461 1458 1455 1451 1446 1430 1429 1428 1425 1420 1417 1413 1410 1406 1403 1398 1395 1391 1387 1383 1380